Location: Bennemühlen
(52.5740°N, 9.7135°E)
Time: 19:58:18
(UTC+00:00)

Spot 2 Rocket - Pass Details

Date: 19 May 2025
Orbit: 753 x 766 km, 98.3° (Epoch: 20 June)

Event Time Altitude Azimuth Distance (km) Brightness Sun altitude
Exits shadow 20:17:45 - 165° (SSE) 2,602 5.7 -7.6°
Reaches altitude 10° 20:18:34 10° 165° (SSE) 2,276 5.4 -7.7°
Maximum altitude 20:23:35 86° 253° (WSW) 766 3.5 -8.2°
Drops below altitude 10° 20:28:40 10° 344° (NNW) 2,299 7.2 -8.7°
Sets 20:30:59 0° 345° (NNW) 3,231 8.1 -8.9°
